EHI
0 0 0 0 0 0 0 0 0 0 0 0 0 0 0 0 0 0 0 0 0 0 0 0 0 0 0 0 0 0 0 0 0 0 0 0 0 0 0 0 0 0 0 0
0 0 0 0 0 0 0 0 0 0 0 0 0 0 0 0 0 0 0 0 0 0 0 0 0 0 0 0 0 0 0 0 0 0 0 0 0 0 0 0 0 0 0 0
0 0 0 0 0 0 0 0 0 0 0 0 0 0 0 0 0 0 0 0 0 0 0 0 0 0 0 0 0 0 0 0 0 0 0 0 0 0 0 0 0 0 0 0
0 0 0 0 0 0 0 0 0 0 0 0 0 0 0 0 0 0 0 0 0 0 0 0 0 0 0 0 0 0 0 0 0 0 0 0 0 0 0 0 0 0 0 0
0 0 0 0 0 0 0 0 0 0 0 0 0 0 0 0 0 0 0 0 0 0 0 0 0 0 0 0 0 0 0 0 0 0 0 0 0 0 0 0 0 0 0 0
0 0 0 0 0 0 0 0 0 0 0 0 0 0 0 0 0 0 0 0 0 0 0 0 0 0 0 0 0 0 0 0 0 0 0 0 0 0 0 0 0 0 0 0
0 0 0 0 0 0 0 0 0 0 0 0 0 0 0 0 0 0 0 0 0 0 0 0 0 0 0 0 0 0 0 0 0 0 0 0 0 0 0 0 0 0 0 0
0 0 0 0 0 0 0 0 0 0 0 0 0 0 0 0 0 0 0 0 0 0 0 0 0 0 0 0 0 0 0 0 0 0 0 0 0 0 0 0 0 0 0 0
0 0 0 0 0 0 0 0 0 0 0 0 0 0 0 0 0 0 0 0 0 0 0 0 0 0 0 0 0 0 0 0 0 0 0 0 0 0 0 0 0 0 0 0
0 0 0 0 0 0 0 0 0 0 0 0 0 0 0 0 0 0 0 0 0 0 0 0 0 0 0 0 0 0 0 0 0 0 0 0 0 0 0 0 0 0 0 0
0 0 0 0 0 0 0 0 0 0 0 0 0 0 0 0 0 0 0 0 0 0 0 0 0 0 0 0 0 0 0 0 0 0 0 0 0 0 0 0 0 0 0 0
0 0 0 0 0 0 0 0 0 0 0 0 0 0 0 0 0 0 0 0 0 0 0 0 0 0 0 0 0 0 0 0 0 0 0 0 0 0 0 0 0 0 0 0
0 0 0 0 0 0 0 0 0 0 0 0 0 0 0 0 0 0 0 0 0 0 0 0 0 0 0 0 0 0 0 0 0 0 0 0 0 0 0 0 0 0 0 0
0 0 0 0 0 0 0 0 0 0 0 0 0 0 0 0 0 0 0 0 0 0 0 0 0 0 0 0 0 0 0 0 0 0 0 0 0 0 0 0 0 0 0 0
0 0 0 0 0 0 0 0 0 0 0 0 0 0 0 0 0 0 0 0 0 0 0 0 0 0 0 0 0 0 0 0 0 0 0 0 0 0 0 0 0 0 0 0
0 0 0 0 0 0 0 0 0 0 0 0 0 0 0 0 0 0 0 0 0 0 0 0 0 0 0 0 0 0 0 0 0 0 0 0 0 0 0 0 0 0 0 0
0 0 0 0 0 0 0 0 0 0 0 0 0 0 0 0 0 0 0 0 0 0 0 0 0 0 0 0 0 0 0 0 0 0 0 0 0 0 0 0 0 0 0 0
0 0 0 0 0 0 0 0 0 0 0 0 0 0 0 0 0 0 0 0 0 0 0 0 0 0 0 0 0 0 0 0 0 0 0 0 0 0 0 0 0 0 0 0
0 0 0 0 0 0 0 0 0 0 0 0 0 0 0 0 0 0 0 0 0 0 0 0 0 0 0 0 0 0 0 0 0 0 0 0 0 0 0 0 0 0 0 0
0 0 0 0 0 0 0 0 0 0 0 0 0 0 0 0 0 0 0 0 0 0 0 0 0 0 0 0 0 0 0 0 0 0 0 0 0 0 0 0 0 0 0 0
0 0 0 0 0 0 0 0 0 0 0 0 0 0 0 0 0 0 0 0 0 0 0 0 0 0 0 0 0 0 0 0 0 0 0 0 0 0 0 0 0 0 0 0
0 0 0 0 0 0 0 0 0 0 0 0 0 0 0 0 0 0 0 0 0 0 0 0 0 0 0 0 0 0 0 0 0 0 0 0 0 0 0 0 0 0 0 0
0 0 0 0 0 0 0 0 0 0 0 0 0 0 0 0 0 0 0 0 0 0 0 0 0 0 0 0 0 0 0 0 0 0 0 0 0 0 0 0 0 0 0 0
0 0 0 0 0 0 0 0 0 0 0 0 0 0 0 0 0 0 0 0 0 0 0 0 0 0 0 0 0 0 0 0 0 0 0 0 0 0 0 0 0 0 0 0
0 0 0 0 0 0 0 0 0 0 0 0 0 0 0 0 0 0 0 0 0 0 0 0 0 0 0 0 0 0 0 0 0 0 0 0 0 0 0 0 0 0 0 0
0 0 0 0 0 0 0 0 0 0 0 0 0 0 0 0 0 0 0 0 0 0 0 0 0 0 0 0 0 0 0 0 0 0 0 0 0 0 0 0 0 0 0 0
0 0 0 0 0 0 0 0 0 0 0 0 0 0 0 0 0 0 0 0 0 0 0 0 0 0 0 0 0 0 0 0 0 0 0 0 0 0 0 0 0 0 0 0
Wind_Speed
0 1 3 3 3 4 3 2 4 6 6 5 4 6 7 8 9 9 10 10 10 10 10 10 11 11 11 12 12 12 12 13 14 14 13 13 12 11 11 10 11 11 10 9
1 2 4 3 2 2 1 1 3 4 6 5 4 5 7 9 10 10 10 11 11 11 11 11 11 11 11 11 11 11 12 14 14 14 14 14 13 12 11 11 10 9 10 10
2 2 0 2 3 2 3 4 4 6 6 5 7 8 8 9 9 10 11 12 12 11 11 11 11 11 12 12 12 12 13 14 14 14 14 14 15 13 11 11 10 9 10 10
1 2 3 5 2 3 4 5 6 6 7 7 10 8 9 9 8 10 10 10 11 11 11 11 11 12 12 12 12 13 14 14 14 14 15 14 13 13 11 9 8 8 9 9
3 0 5 3 3 3 3 7 6 5 8 7 7 6 6 6 5 7 9 10 11 12 13 12 12 12 13 13 13 14 15 15 15 14 15 14 14 12 10 8 8 8 6 8
3 1 5 6 2 1 1 6 5 5 7 7 5 6 7 6 7 9 10 10 11 11 12 12 12 12 13 14 14 15 15 15 15 14 14 14 13 11 9 8 8 8 8 7
3 4 8 5 1 2 1 6 3 4 6 5 5 7 8 9 9 9 11 13 12 12 12 12 12 12 14 14 15 15 16 15 15 13 12 12 10 9 8 7 7 7 7 7
4 2 8 4 5 5 8 3 2 4 5 6 7 8 8 8 9 11 11 11 11 11 13 12 11 12 14 15 15 15 15 15 14 12 10 9 8 7 6 6 6 6 5 6
9 8 5 4 7 5 5 4 3 4 5 5 6 7 7 7 9 10 11 11 11 12 13 13 11 11 14 15 15 15 14 14 12 11 9 8 7 6 5 4 4 4 4 5
3 6 5 4 4 3 5 5 4 4 5 4 5 7 9 8 9 10 9 11 11 12 14 14 13 13 13 14 14 14 14 13 11 10 9 7 6 4 4 3 3 4 4 5
4 5 3 6 7 5 4 4 4 4 3 4 5 7 7 7 9 9 10 10 10 12 13 14 14 14 13 13 13 13 13 11 10 8 8 7 6 4 4 4 4 4 4 4
8 8 7 7 6 6 5 5 5 4 4 4 4 7 7 8 8 9 11 11 11 12 13 14 14 14 13 12 12 12 11 10 8 7 6 5 5 5 3 3 3 6 6 5
6 4 6 3 3 5 5 5 4 4 4 5 5 5 6 6 7 9 11 11 12 13 14 14 14 14 13 13 13 12 11 10 7 6 6 5 5 4 4 3 4 4 1 4
4 6 3 4 5 6 5 3 2 2 4 4 5 6 7 7 8 10 11 11 12 13 13 13 14 14 13 14 13 12 11 10 8 6 5 5 4 3 2 2 1 1 3 3
7 6 6 5 5 4 3 2 2 4 5 5 5 6 7 8 9 11 11 11 12 12 12 13 14 14 14 14 13 12 10 7 6 5 5 4 4 3 2 1 0 0 1 2
7 4 4 5 6 5 4 4 4 5 5 5 6 7 7 8 9 10 10 10 11 13 13 13 14 15 15 13 13 10 8 12 9 5 4 4 3 2 2 1 1 0 0 0
9 7 7 6 7 7 6 6 6 6 5 6 6 7 7 8 9 10 11 10 10 11 10 11 14 15 14 12 11 8 8 8 10 6 4 3 3 3 2 1 0 0 0 0
10 10 9 8 7 7 7 6 6 6 5 5 6 5 6 7 9 11 12 12 12 11 9 12 15 16 14 12 10 8 7 6 5 5 4 3 3 2 2 1 1 1 0 0
7 8 8 8 8 7 6 6 6 5 5 4 4 5 6 7 8 9 10 10 11 13 15 16 20 16 14 14 14 7 7 6 5 4 3 4 3 2 2 1 1 1 1 0
7 7 8 7 7 6 6 5 5 5 4 3 3 5 6 7 7 8 9 7 6 8 13 15 15 13 14 14 16 7 7 6 5 5 4 3 3 2 2 2 2 2 2 1
9 8 9 8 7 6 6 5 5 5 4 3 3 4 6 7 7 7 8 8 8 10 13 14 11 12 12 13 13 8 7 6 5 4 4 4 3 3 2 2 2 2 2 2
9 9 9 8 7 6 5 4 4 4 3 3 3 4 5 6 6 6 6 5 9 13 11 9 10 14 18 14 8 8 8 8 6 5 4 4 3 3 3 3 2 2 2 2
8 9 9 9 8 6 4 4 5 4 4 3 3 3 4 4 4 5 7 6 8 12 10 8 14 20 19 10 8 9 9 9 8 7 6 4 3 3 3 3 3 2 2 2
8 9 9 8 6 5 6 6 5 4 3 3 2 2 3 3 4 3 5 9 11 12 8 10 15 18 14 8 8 9 8 8 8 7 7 5 4 3 3 3 3 3 3 3
9 9 8 8 8 8 8 6 4 4 3 2 2 2 2 2 3 5 6 8 10 10 8 10 13 14 10 8 9 9 8 8 9 8 7 6 5 4 3 2 2 2 2 3
10 10 10 11 9 7 6 6 5 4 4 3 2 1 2 2 3 4 5 7 9 10 8 8 9 10 9 9 9 9 8 9 9 8 8 7 7 6 4 3 3 2 2 2
7 7 6 6 5 6 6 7 6 6 6 5 3 2 1 2 3 4 5 6 6 7 7 7 7 8 8 9 9 8 8 8 8 8 8 7 7 6 5 5 4 3 3 3
Wind_Direction
16 353 99 83 60 60 91 163 209 258 261 254 256 277 281 284 291 298 297 297 296 295 295 294 296 296 294 292 292 292 291 288 284 281 278 275 268 258 250 239 234 230 228 227
48 59 89 80 44 73 116 240 250 269 272 245 271 285 283 285 289 292 294 298 300 301 301 301 300 300 298 296 295 293 291 289 288 286 284 280 274 265 255 245 236 226 224 224
221 261 292 261 222 214 231 231 222 241 255 287 293 286 279 284 293 295 299 302 302 302 299 298 299 300 300 296 297 294 291 291 290 287 285 282 279 273 261 251 239 227 223 219
115 45 263 252 228 208 227 240 215 230 258 275 269 275 275 276 281 289 295 297 299 299 298 298 298 299 299 300 299 297 295 292 291 288 285 283 279 271 263 255 244 234 227 220
107 262 287 271 219 192 227 269 214 231 263 275 294 318 292 274 278 284 292 296 299 300 301 301 302 303 304 304 302 300 298 295 292 288 286 284 279 270 263 254 245 233 223 219
123 186 252 247 210 165 144 287 224 227 267 285 323 326 285 290 309 304 303 301 301 301 302 304 305 308 309 310 309 307 304 300 296 291 286 283 280 273 264 251 242 235 230 222
159 225 262 241 176 98 201 265 220 230 261 275 253 240 270 301 302 296 296 300 302 305 308 309 311 313 313 313 312 311 308 305 303 299 293 287 283 277 268 257 244 231 230 227
157 214 264 202 144 186 220 234 239 254 262 265 264 273 288 296 296 302 304 305 308 311 314 313 314 317 316 316 315 314 313 311 310 306 301 299 293 285 276 259 243 232 228 232
187 212 241 206 202 211 181 209 244 251 265 275 282 286 292 291 295 300 303 307 311 313 316 317 318 318 317 316 318 319 318 316 315 313 310 303 295 288 279 257 239 225 218 226
239 259 238 231 229 216 194 214 243 258 275 279 279 283 289 290 295 303 306 312 313 317 320 321 321 321 317 317 320 320 321 321 320 320 317 312 303 289 271 251 232 222 219 224
247 267 254 255 234 223 219 233 264 280 274 271 274 281 282 291 300 306 311 312 314 318 319 320 321 321 321 322 324 324 323 323 324 324 323 321 316 306 285 255 233 220 221 216
219 214 192 232 224 198 205 232 248 260 273 276 269 275 286 294 298 305 312 314 317 320 322 322 322 320 322 325 327 326 324 325 324 323 324 323 323 326 330 311 263 241 240 233
208 185 182 217 187 181 197 224 237 245 258 276 283 281 289 293 296 306 312 318 320 321 321 321 322 322 325 328 329 327 322 320 318 322 323 324 326 328 332 358 42 41 336 236
178 136 161 196 195 195 197 208 227 270 279 277 276 288 296 294 301 313 319 319 319 319 320 323 325 327 328 328 328 326 322 319 321 316 317 318 319 320 318 325 349 28 36 41
190 182 190 193 179 178 185 197 238 279 286 289 283 291 300 306 311 315 316 318 321 323 326 328 330 329 329 328 327 325 322 318 316 316 318 318 320 326 331 331 353 42 52 47
183 183 174 170 186 197 201 218 238 262 272 276 285 294 300 303 305 307 312 320 327 327 326 327 328 327 326 327 328 325 322 324 331 323 324 331 336 340 343 350 3 14 85 120
153 184 194 202 208 209 212 218 226 245 262 272 281 296 308 314 318 322 326 327 322 317 318 326 328 327 327 328 327 323 321 322 331 333 332 332 333 339 345 355 353 336 299 227
183 183 177 182 188 202 216 225 233 244 252 263 288 306 314 319 320 321 324 326 326 327 333 337 333 330 328 330 328 323 321 319 322 326 329 337 342 353 1 8 23 42 356 225
178 175 179 182 180 183 200 217 230 240 256 269 289 300 301 304 307 312 319 324 332 338 339 336 330 331 331 331 332 323 325 327 332 333 336 346 2 16 17 19 24 20 19 35
175 171 172 177 179 184 200 216 225 241 254 258 282 299 308 311 315 319 322 315 318 327 326 326 329 333 333 332 333 328 329 331 335 339 346 355 1 4 8 23 33 29 28 24
177 171 172 180 191 202 208 209 213 235 252 255 269 288 298 306 316 322 325 326 330 335 333 329 335 338 335 332 330 337 340 342 345 347 349 355 2 9 18 36 47 44 33 25
177 174 180 184 191 207 216 213 215 229 243 258 274 291 305 312 319 319 307 306 322 331 334 334 340 339 338 337 344 348 351 353 353 353 356 2 11 18 26 36 44 44 50 43
177 177 181 188 194 202 210 217 219 218 226 242 264 286 295 300 307 319 326 324 327 332 334 335 337 340 344 348 353 355 356 358 356 355 357 1 9 20 27 35 43 47 52 60
178 180 185 185 171 179 209 222 214 209 211 222 245 273 293 307 308 291 299 313 325 330 333 333 337 343 348 354 357 358 359 359 355 351 354 0 7 13 27 40 44 45 48 50
183 182 181 180 186 201 208 202 189 192 194 216 250 289 305 289 291 309 318 325 332 336 338 340 343 348 356 357 360 1 359 360 355 352 355 360 5 9 20 34 47 54 53 49
188 191 197 202 202 194 180 172 179 186 185 204 232 264 307 317 317 320 328 335 341 341 345 348 350 354 360 359 1 3 1 358 358 359 359 360 3 10 14 21 39 49 56 53
204 200 200 210 206 187 175 174 179 183 182 186 201 216 285 320 330 338 342 346 348 348 349 352 355 358 0 2 2 4 5 3 0 358 357 359 0 2 6 13 20 27 35 49